• In Slovakia
  • List of Countries
  • For 7 days
  • Water Temperature
  • Satellite Maps
  • Weather Map
  • Weather Widgets
  • user-avatar
    Login

    Hourly Weather Innsbruck

    Today, 18 October, Thursday

    Time Temperature Precipitation Wind Pressure Humidity
    00:00 +3°C° 0 mm 1 mps 596 mmHg 83%
    01:00 +3°C° 0 mm 1 mps 596 mmHg 82%
    02:00 +3°C° 0 mm 1 mps 596 mmHg 82%
    03:00 +3°C° 0 mm 1 mps 596 mmHg 82%
    04:00 +2°C° 0 mm 1 mps 596 mmHg 82%
    05:00 +2°C° 0 mm 1 mps 596 mmHg 82%
    06:00 +2°C° 0 mm 1 mps 596 mmHg 81%
    07:00 +2°C° 0 mm 1 mps 596 mmHg 81%
    08:00 +5°C° 0 mm 1 mps 597 mmHg 72%
    09:00 +7°C° 0 mm 1 mps 598 mmHg 63%
    10:00 +10°C° 0 mm 1 mps 599 mmHg 55%
    11:00 +11°C° 0 mm 1 mps 599 mmHg 53%
    12:00 +11°C° 0 mm 1 mps 599 mmHg 51%
    13:00 +12°C° 0 mm 1 mps 600 mmHg 49%
    14:00 +11°C° 0 mm 1 mps 599 mmHg 53%
    15:00 +11°C° 0 mm 1 mps 599 mmHg 58%
    16:00 +9°C° 0 mm 2 mps 598 mmHg 62%
    17:00 +8°C° 0 mm 1 mps 598 mmHg 72%
    18:00 +6°C° 0 mm 1 mps 597 mmHg 82%
    19:00 +3°C° 0 mm 1 mps 596 mmHg 92%
    20:00 +3°C° 0 mm 1 mps 596 mmHg 92%
    21:00 +3°C° 0 mm 1 mps 596 mmHg 93%
    22:00 +3°C° 0 mm 1 mps 597 mmHg 94%
    23:00 +3°C° 0 mm 1 mps 597 mmHg 93%

    Tomorrow, 19 October, Friday

    Time Temperature Precipitation Wind Pressure Humidity
    00:00 +3°C° 0 mm 1 mps 597 mmHg 93%
    01:00 +2°C° 0 mm 1 mps 596 mmHg 93%
    02:00 +2°C° 0 mm 1 mps 596 mmHg 92%
    03:00 +2°C° 0 mm 1 mps 596 mmHg 91%
    04:00 +2°C° 0 mm 1 mps 596 mmHg 90%
    05:00 +2°C° 0 mm 1 mps 596 mmHg 89%
    06:00 +2°C° 0 mm 1 mps 596 mmHg 89%
    07:00 +2°C° 0 mm 1 mps 597 mmHg 88%
    08:00 +4°C° 0 mm 1 mps 598 mmHg 77%
    09:00 +7°C° 0 mm 1 mps 599 mmHg 65%
    10:00 +10°C° 0 mm 1 mps 601 mmHg 54%
    11:00 +11°C° 0 mm 1 mps 601 mmHg 50%
    12:00 +11°C° 0 mm 1 mps 601 mmHg 46%
    13:00 +12°C° 0 mm 1 mps 602 mmHg 41%
    14:00 +12°C° 0 mm 1 mps 601 mmHg 47%
    15:00 +10°C° 0 mm 2 mps 601 mmHg 53%
    16:00 +9°C° 0 mm 2 mps 601 mmHg 58%
    17:00 +8°C° 0 mm 1 mps 600 mmHg 69%
    18:00 +5°C° 0 mm 1 mps 599 mmHg 79%
    19:00 +3°C° 0 mm 1 mps 598 mmHg 89%
    20:00 +3°C° 0 mm 1 mps 598 mmHg 89%
    21:00 +2°C° 0 mm 1 mps 599 mmHg 89%
    22:00 +2°C° 0 mm 1 mps 599 mmHg 89%
    23:00 +2°C° 0 mm 1 mps 599 mmHg 88%

    Day after tomorrow, 20 October, Saturday

    Time Temperature Precipitation Wind Pressure Humidity
    00:00 +2°C° 0 mm 1 mps 599 mmHg 88%
    01:00 +2°C° 0 mm 1 mps 599 mmHg 87%
    02:00 +1°C° 0 mm 1 mps 599 mmHg 86%
    03:00 +1°C° 0 mm 1 mps 599 mmHg 85%
    04:00 +1°C° 0 mm 1 mps 599 mmHg 84%
    05:00 +1°C° 0 mm 1 mps 599 mmHg 82%
    06:00 +1°C° 0 mm 1 mps 599 mmHg 81%
    07:00 +1°C° 0 mm 1 mps 600 mmHg 79%
    08:00 +4°C° 0 mm 1 mps 601 mmHg 68%
    09:00 +6°C° 0 mm 1 mps 602 mmHg 57%
    10:00 +9°C° 0 mm 1 mps 604 mmHg 45%
    11:00 +9°C° 0 mm 2 mps 604 mmHg 43%
    12:00 +9°C° 0 mm 2 mps 604 mmHg 41%
    13:00 +10°C° 0 mm 2 mps 604 mmHg 39%
    14:00 +9°C° 0 mm 2 mps 604 mmHg 46%
    15:00 +9°C° 0 mm 2 mps 604 mmHg 52%
    16:00 +8°C° 0 mm 2 mps 603 mmHg 58%
    17:00 +6°C° 0 mm 2 mps 603 mmHg 69%
    18:00 +5°C° 0 mm 1 mps 602 mmHg 80%
    19:00 +2°C° 0 mm 1 mps 601 mmHg 91%
    20:00 +2°C° 0 mm 1 mps 601 mmHg 91%
    21:00 +2°C° 0 mm 1 mps 601 mmHg 91%
    22:00 +1°C° 0 mm 1 mps 601 mmHg 91%
    23:00 +1°C° 0 mm 1 mps 601 mmHg 88%

    21 October, Sunday

    Time Temperature Precipitation Wind Pressure Humidity
    00:00 0°C° 0 mm 1 mps 601 mmHg 85%
    01:00 0°C° 0 mm 1 mps 601 mmHg 82%
    02:00 0°C° 0 mm 1 mps 600 mmHg 76%
    03:00 0°C° 0 mm 1 mps 600 mmHg 70%
    04:00 -1°C° 0 mm 1 mps 600 mmHg 64%
    05:00 0°C° 0 mm 1 mps 600 mmHg 59%
    06:00 0°C° 0 mm 1 mps 600 mmHg 54%
    07:00 0°C° 0 mm 1 mps 600 mmHg 49%
    08:00 +3°C° 0 mm 1 mps 602 mmHg 42%
    09:00 +6°C° 0 mm 1 mps 603 mmHg 34%
    10:00 +9°C° 0 mm 1 mps 605 mmHg 26%
    11:00 +10°C° 0 mm 1 mps 605 mmHg 25%
    12:00 +11°C° 0 mm 1 mps 605 mmHg 24%
    13:00 +12°C° 0 mm 1 mps 605 mmHg 24%
    14:00 +11°C° 0 mm 1 mps 604 mmHg 31%
    15:00 +11°C° 0 mm 1 mps 604 mmHg 39%
    16:00 +10°C° 0 mm 1 mps 603 mmHg 47%
    17:00 +7°C° 0 mm 1 mps 602 mmHg 54%
    18:00 +5°C° 0 mm 1 mps 601 mmHg 61%
    19:00 +2°C° 0 mm 1 mps 600 mmHg 68%
    20:00 +2°C° 0 mm 1 mps 600 mmHg 64%
    21:00 +2°C° 0 mm 1 mps 600 mmHg 61%
    22:00 +2°C° 0 mm 1 mps 601 mmHg 57%
    23:00 +2°C° 0 mm 1 mps 600 mmHg 54%

    22 October, Monday

    Time Temperature Precipitation Wind Pressure Humidity
    00:00 +2°C° 0 mm 1 mps 600 mmHg 52%
    01:00 +2°C° 0 mm 1 mps 600 mmHg 49%
    02:00 +2°C° 0 mm 1 mps 600 mmHg 49%
    03:00 +2°C° 0 mm 1 mps 600 mmHg 48%
    04:00 +2°C° 0 mm 1 mps 600 mmHg 48%
    05:00 +2°C° 0 mm 1 mps 600 mmHg 48%
    06:00 +2°C° 0 mm 1 mps 600 mmHg 49%
    07:00 +2°C° 0 mm 1 mps 600 mmHg 50%
    08:00 +3°C° 0 mm 2 mps 601 mmHg 46%
    09:00 +6°C° 0 mm 2 mps 602 mmHg 42%
    10:00 +9°C° 0 mm 2 mps 603 mmHg 38%
    11:00 +9°C° 0 mm 2 mps 603 mmHg 38%
    12:00 +10°C° 0 mm 2 mps 603 mmHg 38%
    13:00 +12°C° 0 mm 2 mps 603 mmHg 39%
    14:00 +10°C° 0 mm 2 mps 603 mmHg 45%
    15:00 +9°C° 0 mm 2 mps 602 mmHg 51%
    16:00 +8°C° 0 mm 2 mps 601 mmHg 57%
    17:00 +5°C° 0 mm 2 mps 601 mmHg 67%
    18:00 +3°C° 0 mm 2 mps 600 mmHg 78%
    19:00 +2°C° 0 mm 1 mps 599 mmHg 88%
    20:00 +1°C° 0 mm 1 mps 599 mmHg 89%
    21:00 +1°C° 0 mm 1 mps 599 mmHg 91%
    22:00 +1°C° 0 mm 1 mps 599 mmHg 92%
    23:00 0°C° 0 mm 1 mps 599 mmHg 91%

    23 October, Tuesday

    Time Temperature Precipitation Wind Pressure Humidity
    00:00 0°C° 0 mm 1 mps 598 mmHg 90%
    01:00 0°C° 0 mm 1 mps 598 mmHg 89%
    02:00 -1°C° 0 mm 1 mps 598 mmHg 88%
    03:00 -1°C° 0 mm 1 mps 597 mmHg 87%
    04:00 -1°C° 0 mm 1 mps 597 mmHg 86%
    05:00 -1°C° 0 mm 1 mps 597 mmHg 85%
    06:00 -1°C° 0 mm 1 mps 596 mmHg 84%
    07:00 -1°C° 0 mm 1 mps 596 mmHg 84%
    08:00 +1°C° 0 mm 1 mps 597 mmHg 77%
    09:00 +1°C° 0 mm 2 mps 597 mmHg 70%
    10:00 +3°C° 0 mm 2 mps 597 mmHg 64%
    11:00 +3°C° 0.3 mm 2 mps 597 mmHg 68%
    12:00 +3°C° 0.3 mm 2 mps 596 mmHg 72%
    13:00 +3°C° 0.3 mm 2 mps 596 mmHg 76%
    14:00 +2°C° 1.3 mm 2 mps 595 mmHg 80%
    15:00 0°C° 1.3 mm 3 mps 595 mmHg 85%
    16:00 -1°C° 1.3 mm 3 mps 594 mmHg 89%
    17:00 -2°C° 0.6 mm 3 mps 594 mmHg 90%
    18:00 -4°C° 0.6 mm 3 mps 594 mmHg 92%
    19:00 -5°C° 0.6 mm 3 mps 593 mmHg 93%
    20:00 -4°C° 0.6 mm 2 mps 593 mmHg 93%
    21:00 -4°C° 0.6 mm 2 mps 593 mmHg 93%
    22:00 -5°C° 0.6 mm 2 mps 593 mmHg 93%
    23:00 -5°C° 0.5 mm 2 mps 593 mmHg 93%
    Show more